When you browse on this site, cookies collect data to enhance your experience and personalize the content and advertising you see.
Visit our Privacy Policy to learn more. By continuing to use the site, you agree to this use of cookies and data.
  • In Hungary
  • List of Countries
  • For 7 days
  • Water Temperature
  • Satellite Maps
  • Weather Map
  • News
  • Weather Widgets
  • user-avatar
    Login

    Hourly Weather Monroeville

    Today, 20 July, Saturday

    Time Temperature Precipitation Wind Pressure Humidity
    00:00 +26°C° 1.3 mm 2 mps 733 mmHg 89%
    01:00 +26°C° 0 mm 1 mps 734 mmHg 90%
    02:00 +26°C° 1.7 mm 2 mps 734 mmHg 91%
    03:00 +25°C° 1.7 mm 2 mps 734 mmHg 93%
    04:00 +25°C° 1.7 mm 2 mps 733 mmHg 95%
    05:00 +26°C° 0.1 mm 2 mps 734 mmHg 94%
    06:00 +26°C° 0.1 mm 2 mps 734 mmHg 94%
    07:00 +26°C° 0.1 mm 2 mps 734 mmHg 94%
    08:00 +27°C° 0 mm 2 mps 734 mmHg 89%
    09:00 +29°C° 0 mm 3 mps 733 mmHg 84%
    10:00 +30°C° 0 mm 3 mps 733 mmHg 79%
    11:00 +31°C° 0 mm 3 mps 733 mmHg 72%
    12:00 +34°C° 0 mm 4 mps 733 mmHg 65%
    13:00 +35°C° 0 mm 4 mps 733 mmHg 57%
    14:00 +35°C° 0 mm 4 mps 733 mmHg 57%
    15:00 +35°C° 0 mm 3 mps 733 mmHg 57%
    16:00 +36°C° 0 mm 3 mps 732 mmHg 57%
    17:00 +34°C° 0.2 mm 3 mps 732 mmHg 62%
    18:00 +33°C° 0.2 mm 3 mps 733 mmHg 68%
    19:00 +30°C° 0.2 mm 2 mps 733 mmHg 73%
    20:00 +29°C° 0 mm 2 mps 733 mmHg 76%
    21:00 +28°C° 0 mm 2 mps 733 mmHg 79%
    22:00 +27°C° 0 mm 2 mps 733 mmHg 82%
    23:00 +27°C° 0 mm 2 mps 733 mmHg 85%

    Tomorrow, 21 July, Sunday

    Time Temperature Precipitation Wind Pressure Humidity
    00:00 +26°C° 0 mm 2 mps 733 mmHg 88%
    01:00 +26°C° 0 mm 2 mps 733 mmHg 91%
    02:00 +26°C° 0 mm 2 mps 733 mmHg 92%
    03:00 +25°C° 0 mm 2 mps 733 mmHg 93%
    04:00 +25°C° 0 mm 2 mps 732 mmHg 94%
    05:00 +26°C° 0 mm 2 mps 733 mmHg 93%
    06:00 +26°C° 0 mm 3 mps 733 mmHg 91%
    07:00 +27°C° 0 mm 3 mps 733 mmHg 89%
    08:00 +29°C° 0 mm 3 mps 733 mmHg 82%
    09:00 +30°C° 0 mm 3 mps 733 mmHg 75%
    10:00 +33°C° 0 mm 4 mps 733 mmHg 68%
    11:00 +34°C° 0 mm 4 mps 733 mmHg 64%
    12:00 +35°C° 0 mm 4 mps 733 mmHg 59%
    13:00 +36°C° 0 mm 4 mps 733 mmHg 54%
    14:00 +36°C° 0 mm 4 mps 733 mmHg 54%
    15:00 +36°C° 0 mm 4 mps 733 mmHg 55%
    16:00 +36°C° 0 mm 4 mps 732 mmHg 55%
    17:00 +34°C° 0.4 mm 3 mps 732 mmHg 64%
    18:00 +31°C° 0.4 mm 3 mps 732 mmHg 72%
    19:00 +29°C° 0.4 mm 2 mps 732 mmHg 80%
    20:00 +28°C° 0.2 mm 2 mps 732 mmHg 83%
    21:00 +27°C° 0.2 mm 1 mps 732 mmHg 85%
    22:00 +24°C° 0.2 mm 0 mps 732 mmHg 87%
    23:00 +24°C° 0.2 mm 0 mps 732 mmHg 88%

    Day after tomorrow, 22 July, Monday

    Time Temperature Precipitation Wind Pressure Humidity
    00:00 +23°C° 0.2 mm 0 mps 732 mmHg 89%
    01:00 +23°C° 0.2 mm 0 mps 732 mmHg 90%
    02:00 +25°C° 2.3 mm 1 mps 732 mmHg 91%
    03:00 +25°C° 2.3 mm 2 mps 731 mmHg 92%
    04:00 +25°C° 2.3 mm 3 mps 731 mmHg 93%
    05:00 +25°C° 0.1 mm 2 mps 731 mmHg 93%
    06:00 +25°C° 0.1 mm 2 mps 731 mmHg 92%
    07:00 +25°C° 0.1 mm 2 mps 731 mmHg 92%
    08:00 +26°C° 0.7 mm 2 mps 731 mmHg 89%
    09:00 +27°C° 0.7 mm 3 mps 731 mmHg 86%
    10:00 +27°C° 0.7 mm 4 mps 731 mmHg 83%
    11:00 +27°C° 2.6 mm 4 mps 731 mmHg 86%
    12:00 +26°C° 2.6 mm 4 mps 731 mmHg 88%
    13:00 +26°C° 2.6 mm 4 mps 731 mmHg 90%
    14:00 +25°C° 1.7 mm 4 mps 731 mmHg 91%
    15:00 +25°C° 1.7 mm 3 mps 731 mmHg 91%
    16:00 +24°C° 1.7 mm 3 mps 731 mmHg 92%
    17:00 +22°C° 0.6 mm 3 mps 731 mmHg 92%
    18:00 +21°C° 0.6 mm 3 mps 731 mmHg 92%
    19:00 +20°C° 0.6 mm 3 mps 731 mmHg 92%
    20:00 +20°C° 0.2 mm 2 mps 731 mmHg 92%
    21:00 +19°C° 0.2 mm 2 mps 731 mmHg 91%
    22:00 +19°C° 0.2 mm 2 mps 731 mmHg 90%
    23:00 +18°C° 0 mm 2 mps 731 mmHg 90%

    23 July, Tuesday

    Time Temperature Precipitation Wind Pressure Humidity
    00:00 +18°C° 0 mm 2 mps 731 mmHg 90%
    01:00 +19°C° 0 mm 1 mps 731 mmHg 90%
    02:00 +18°C° 0 mm 1 mps 731 mmHg 91%
    03:00 +18°C° 0 mm 1 mps 731 mmHg 91%
    04:00 +16°C° 0 mm 1 mps 731 mmHg 91%
    05:00 +16°C° 0 mm 1 mps 732 mmHg 91%
    06:00 +18°C° 0 mm 1 mps 732 mmHg 90%
    07:00 +17°C° 0 mm 2 mps 732 mmHg 89%
    08:00 +19°C° 0 mm 2 mps 733 mmHg 77%
    09:00 +21°C° 0 mm 3 mps 733 mmHg 66%
    10:00 +24°C° 0 mm 3 mps 733 mmHg 54%
    11:00 +25°C° 0 mm 3 mps 733 mmHg 52%
    12:00 +25°C° 0 mm 3 mps 733 mmHg 50%
    13:00 +26°C° 0 mm 3 mps 733 mmHg 47%
    14:00 +26°C° 0 mm 3 mps 733 mmHg 50%
    15:00 +26°C° 0 mm 3 mps 733 mmHg 53%
    16:00 +26°C° 0 mm 3 mps 733 mmHg 55%
    17:00 +24°C° 0 mm 3 mps 733 mmHg 60%
    18:00 +22°C° 0 mm 3 mps 733 mmHg 65%
    19:00 +20°C° 0 mm 2 mps 733 mmHg 69%
    20:00 +19°C° 0 mm 2 mps 733 mmHg 74%
    21:00 +18°C° 0 mm 2 mps 734 mmHg 80%
    22:00 +16°C° 0 mm 2 mps 734 mmHg 85%
    23:00 +16°C° 0 mm 1 mps 734 mmHg 86%

    24 July, Wednesday

    Time Temperature Precipitation Wind Pressure Humidity
    00:00 +15°C° 0 mm 1 mps 734 mmHg 88%
    01:00 +15°C° 0 mm 1 mps 734 mmHg 90%
    02:00 +13°C° 0 mm 0 mps 734 mmHg 90%
    03:00 +13°C° 0 mm 0 mps 734 mmHg 91%
    04:00 +13°C° 0 mm 0 mps 734 mmHg 92%
    05:00 +14°C° 0 mm 0 mps 735 mmHg 89%
    06:00 +15°C° 0 mm 0 mps 735 mmHg 87%
    07:00 +15°C° 0 mm 0 mps 735 mmHg 84%
    08:00 +18°C° 0 mm 0 mps 736 mmHg 74%
    09:00 +20°C° 0 mm 0 mps 736 mmHg 64%
    10:00 +23°C° 0 mm 0 mps 736 mmHg 53%
    11:00 +25°C° 0 mm 1 mps 736 mmHg 50%
    12:00 +26°C° 0 mm 1 mps 736 mmHg 47%
    13:00 +27°C° 0 mm 1 mps 735 mmHg 44%
    14:00 +27°C° 0 mm 1 mps 735 mmHg 46%
    15:00 +26°C° 0 mm 2 mps 735 mmHg 49%
    16:00 +26°C° 0 mm 2 mps 735 mmHg 52%
    17:00 +24°C° 0.2 mm 2 mps 735 mmHg 61%
    18:00 +23°C° 0.2 mm 2 mps 735 mmHg 71%
    19:00 +20°C° 0.2 mm 2 mps 735 mmHg 81%
    20:00 +20°C° 0 mm 1 mps 735 mmHg 83%
    21:00 +19°C° 0 mm 1 mps 736 mmHg 86%
    22:00 +18°C° 0 mm 1 mps 736 mmHg 89%
    23:00 +16°C° 0 mm 1 mps 736 mmHg 88%

    25 July, Thursday

    Time Temperature Precipitation Wind Pressure Humidity
    00:00 +15°C° 0 mm 1 mps 736 mmHg 88%
    01:00 +15°C° 0 mm 1 mps 736 mmHg 88%
    02:00 +14°C° 0 mm 1 mps 736 mmHg 88%
    03:00 +14°C° 0 mm 1 mps 736 mmHg 88%
    04:00 +12°C° 0 mm 0 mps 736 mmHg 89%
    05:00 +13°C° 0 mm 0 mps 737 mmHg 88%
    06:00 +14°C° 0 mm 0 mps 737 mmHg 88%
    07:00 +14°C° 0 mm 0 mps 737 mmHg 88%
    08:00 +17°C° 0 mm 0 mps 738 mmHg 79%
    09:00 +21°C° 0 mm 1 mps 738 mmHg 71%
    10:00 +23°C° 0 mm 1 mps 738 mmHg 63%
    11:00 +24°C° 0.1 mm 1 mps 738 mmHg 60%
    12:00 +24°C° 0.1 mm 1 mps 738 mmHg 57%
    13:00 +25°C° 0.1 mm 1 mps 738 mmHg 54%
    14:00 +25°C° 0 mm 1 mps 738 mmHg 54%
    15:00 +25°C° 0 mm 1 mps 738 mmHg 55%
    16:00 +25°C° 0 mm 1 mps 738 mmHg 55%
    17:00 +24°C° 0 mm 1 mps 738 mmHg 61%
    18:00 +23°C° 0 mm 1 mps 738 mmHg 68%
    19:00 +22°C° 0 mm 1 mps 738 mmHg 74%
    20:00 +20°C° 0 mm 1 mps 739 mmHg 78%
    21:00 +19°C° 0 mm 1 mps 739 mmHg 81%
    22:00 +16°C° 0 mm 1 mps 739 mmHg 85%
    23:00 +15°C° 0 mm 0 mps 739 mmHg 86%
    Show more